| time (UTC) | temp F | wind direction | speed MPH | gust MPH | rain 1hr in | rain 24hr in | rain mn in | humidity % | barometer mb |
| 20260904200926 | 85 | 194 | 2.0 | 3.0 | 0.00 | 0.09 | 0.09 | 70 | 1013.7 |
| 20260904200620 | 85 | 201 | 1.0 | 2.0 | 0.00 | 0.09 | 0.09 | 70 | 1013.9 |
| 20260904200157 | 85 | 117 | 0.0 | 5.0 | 0.00 | 0.09 | 0.09 | 70 | 1013.8 |
| 20260904195449 | 85 | 188 | 1.0 | 5.0 | 0.00 | 0.09 | 0.09 | 73 | 1013.7 |
| 20260904195202 | 85 | 243 | 0.0 | 5.0 | 0.00 | 0.09 | 0.09 | 71 | 1013.8 |
| 20260904194420 | 84 | 98 | 1.0 | 4.0 | 0.00 | 0.09 | 0.09 | 73 | 1013.8 |
| 20260904193940 | 84 | 100 | 2.0 | 4.0 | 0.00 | 0.09 | 0.09 | 74 | 1013.7 |
| 20260904193525 | 84 | 98 | 0.0 | 4.0 | 0.00 | 0.09 | 0.09 | 74 | 1013.7 |
| 20260904192912 | 83 | 87 | 2.0 | 4.0 | 0.00 | 0.09 | 0.09 | 74 | 1013.8 |
| 20260904192411 | 83 | 112 | 1.0 | 6.0 | 0.00 | 0.09 | 0.09 | 75 | 1013.5 |
| 20260904191931 | 82 | 163 | 1.0 | 6.0 | 0.00 | 0.09 | 0.09 | 76 | 1013.1 |
| 20260904191429 | 82 | 166 | 1.0 | 4.0 | 0.00 | 0.09 | 0.09 | 77 | 1012.9 |
| 20260904190927 | 81 | 184 | 1.0 | 6.0 | 0.00 | 0.09 | 0.09 | 78 | 1013.2 |
| 20260904190426 | 81 | 182 | 3.0 | 6.0 | 0.00 | 0.09 | 0.09 | 77 | 1013.1 |
| 20260904185924 | 80 | 143 | 2.0 | 9.0 | 0.00 | 0.09 | 0.09 | 78 | 1013.2 |
| 20260904185424 | 80 | 230 | 1.0 | 9.0 | 0.00 | 0.09 | 0.09 | 78 | 1013.2 |
| 20260904184923 | 79 | 208 | 2.0 | 8.0 | 0.00 | 0.09 | 0.09 | 80 | 1013.2 |
| 20260904184422 | 79 | 185 | 3.0 | 9.0 | 0.00 | 0.09 | 0.09 | 81 | 1013.1 |
| 20260904183921 | 78 | 209 | 4.0 | 9.0 | 0.00 | 0.09 | 0.09 | 82 | 1013.1 |
| 20260904183420 | 78 | 180 | 2.0 | 7.0 | 0.00 | 0.09 | 0.09 | 82 | 1013.4 |
| 20260904182919 | 78 | 195 | 3.0 | 8.0 | 0.00 | 0.09 | 0.09 | 82 | 1013.9 |
| 20260904182419 | 78 | 162 | 1.0 | 8.0 | 0.00 | 0.09 | 0.09 | 83 | 1014.2 |
| 20260904181916 | 78 | 172 | 2.0 | 7.0 | 0.00 | 0.09 | 0.09 | 84 | 1014.5 |
| 20260904181416 | 78 | 165 | 3.0 | 6.0 | 0.00 | 0.09 | 0.09 | 85 | 1014.6 |
| 20260904180914 | 78 | 159 | 1.0 | 6.0 | 0.03 | 0.09 | 0.09 | 84 | 1014.9 |
| 20260904180416 | 78 | 148 | 1.0 | 6.0 | 0.06 | 0.09 | 0.09 | 84 | 1015.0 |
| 20260904175936 | 78 | 207 | 2.0 | 6.0 | 0.09 | 0.09 | 0.09 | 84 | 1014.9 |
| 20260904175412 | 78 | 192 | 1.0 | 6.0 | 0.09 | 0.09 | 0.09 | 84 | 1015.2 |
| 20260904174913 | 78 | 212 | 2.0 | 6.0 | 0.09 | 0.09 | 0.09 | 85 | 1015.3 |
| 20260904174412 | 78 | 215 | 1.0 | 5.0 | 0.09 | 0.09 | 0.09 | 86 | 1015.4 |
| 20260904173931 | 78 | 186 | 1.0 | 4.0 | 0.09 | 0.09 | 0.09 | 87 | 1015.7 |
| 20260904173450 | 78 | 123 | 1.0 | 3.0 | 0.09 | 0.09 | 0.09 | 86 | 1015.8 |
| 20260904172919 | 78 | 189 | 1.0 | 2.0 | 0.09 | 0.09 | 0.09 | 87 | 1016.3 |
| 20260904172419 | 78 | 186 | 0.0 | 2.0 | 0.09 | 0.09 | 0.09 | 86 | 1016.7 |
| 20260904171938 | 78 | 85 | 0.0 | 2.0 | 0.09 | 0.09 | 0.09 | 84 | 1017.0 |
| 20260904171417 | 78 | 85 | 0.0 | 2.0 | 0.09 | 0.09 | 0.09 | 83 | 1017.6 |
| 20260904170933 | 79 | 46 | 0.0 | 3.0 | 0.05 | 0.05 | 0.05 | 80 | 1018.0 |
| 20260904170452 | 79 | 48 | 1.0 | 4.0 | 0.03 | 0.03 | 0.03 | 78 | 1018.5 |
| 20260904165929 | 80 | 292 | 0.0 | 5.0 | 0.00 | 0.00 | 0.00 | 76 | 1019.0 |
| 20260904165427 | 80 | 11 | 3.0 | 9.0 | 0.00 | 0.00 | 0.00 | 72 | 1018.9 |
| 20260904164928 | 81 | 48 | 1.0 | 5.0 | 0.00 | 0.00 | 0.00 | 72 | 1018.8 |
| 20260904164447 | 81 | 57 | 3.0 | 6.0 | 0.00 | 0.00 | 0.00 | 72 | 1018.7 |
| 20260904163946 | 81 | 36 | 2.0 | 6.0 | 0.00 | 0.00 | 0.00 | 70 | 1017.3 |
| 20260904163426 | 81 | 63 | 2.0 | 6.0 | 0.00 | 0.00 | 0.00 | 71 | 1017.0 |
| 20260904162926 | 81 | 65 | 3.0 | 10.0 | 0.00 | 0.00 | 0.00 | 69 | 1017.0 |
| 20260904162435 | 81 | 75 | 4.0 | 10.0 | 0.00 | 0.00 | 0.00 | 70 | 1016.6 |
| 20260904161948 | 81 | 169 | 2.0 | 6.0 | 0.00 | 0.00 | 0.00 | 71 | 1016.4 |
| 20260904161426 | 81 | 81 | 2.0 | 6.0 | 0.00 | 0.00 | 0.00 | 72 | 1016.7 |
| 20260904160915 | 80 | 47 | 2.0 | 6.0 | 0.00 | 0.00 | 0.00 | 74 | 1016.8 |
| 20260904160413 | 80 | 76 | 3.0 | 4.0 | 0.00 | 0.00 | 0.00 | 74 | 1016.9 |
| 20260904155913 | 80 | 102 | 1.0 | 9.0 | 0.00 | 0.00 | 0.00 | 75 | 1016.9 |
| 20260904155413 | 79 | 88 | 4.0 | 9.0 | 0.00 | 0.00 | 0.00 | 74 | 1017.0 |
| 20260904154912 | 79 | 13 | 3.0 | 11.0 | 0.00 | 0.00 | 0.00 | 75 | 1016.9 |
| 20260904154412 | 79 | 70 | 4.0 | 11.0 | 0.00 | 0.00 | 0.00 | 74 | 1016.9 |
| 20260904153911 | 79 | 91 | 3.0 | 12.0 | 0.00 | 0.00 | 0.00 | 75 | 1017.0 |
| 20260904153431 | 79 | 17 | 5.0 | 12.0 | 0.00 | 0.00 | 0.00 | 75 | 1017.1 |
| 20260904152949 | 79 | 31 | 3.0 | 12.0 | 0.00 | 0.00 | 0.00 | 75 | 1017.0 |
| 20260904152447 | 79 | 76 | 4.0 | 9.0 | 0.00 | 0.00 | 0.00 | 75 | 1016.9 |
| 20260904151927 | 79 | 11 | 3.0 | 9.0 | 0.00 | 0.00 | 0.00 | 76 | 1016.9 |
| 20260904151425 | 79 | 17 | 4.0 | 11.0 | 0.00 | 0.00 | 0.00 | 77 | 1017.0 |
| 20260904150924 | 79 | 66 | 5.0 | 12.0 | 0.00 | 0.00 | 0.00 | 78 | 1017.0 |
| 20260904150423 | 78 | 76 | 6.0 | 12.0 | 0.00 | 0.00 | 0.00 | 78 | 1016.7 |
| 20260904145923 | 78 | 65 | 4.0 | 11.0 | 0.00 | 0.00 | 0.00 | 79 | 1016.7 |
| 20260904145423 | 78 | 39 | 2.0 | 9.0 | 0.00 | 0.00 | 0.00 | 81 | 1016.8 |
| 20260904144921 | 78 | 13 | 3.0 | 12.0 | 0.00 | 0.00 | 0.00 | 82 | 1016.7 |
| 20260904144422 | 78 | 79 | 3.0 | 10.0 | 0.00 | 0.00 | 0.00 | 83 | 1016.5 |
| 20260904143920 | 78 | 5 | 4.0 | 12.0 | 0.00 | 0.00 | 0.00 | 83 | 1016.6 |
| 20260904143420 | 79 | 36 | 4.0 | 12.0 | 0.00 | 0.00 | 0.00 | 84 | 1016.4 |
| 20260904142918 | 79 | 29 | 3.0 | 7.0 | 0.00 | 0.00 | 0.00 | 84 | 1016.4 |
| 20260904142417 | 79 | 341 | 3.0 | 7.0 | 0.00 | 0.00 | 0.00 | 84 | 1016.4 |
| 20260904141917 | 79 | 80 | 2.0 | 4.0 | 0.00 | 0.00 | 0.00 | 85 | 1016.5 |
| 20260904141416 | 78 | 34 | 1.0 | 3.0 | 0.00 | 0.00 | 0.00 | 85 | 1016.1 |
| 20260904140915 | 78 | 341 | 0.0 | 3.0 | 0.00 | 0.00 | 0.00 | 86 | 1016.0 |
| 20260904140414 | 78 | 14 | 0.0 | 4.0 | 0.00 | 0.00 | 0.00 | 86 | 1015.9 |
| 20260904135911 | 78 | 17 | 1.0 | 4.0 | 0.00 | 0.00 | 0.00 | 86 | 1015.8 |
| 20260904135426 | 78 | 5 | 1.0 | 3.0 | 0.00 | 0.00 | 0.00 | 87 | 1015.8 |
| 20260904134945 | 78 | 346 | 1.0 | 4.0 | 0.00 | 0.00 | 0.00 | 87 | 1015.8 |
| 20260904134423 | 77 | 63 | 0.0 | 4.0 | 0.00 | 0.00 | 0.00 | 88 | 1015.2 |
| 20260904133923 | 77 | 182 | 2.0 | 4.0 | 0.00 | 0.00 | 0.00 | 88 | 1015.1 |
| 20260904133423 | 77 | 24 | 0.0 | 5.0 | 0.00 | 0.00 | 0.00 | 88 | 1015.6 |
| 20260904132924 | 77 | 172 | 2.0 | 5.0 | 0.00 | 0.00 | 0.00 | 88 | 1015.1 |
| 20260904132423 | 76 | 5 | 1.0 | 4.0 | 0.00 | 0.00 | 0.00 | 89 | 1015.6 |
| 20260904131922 | 76 | 192 | 0.0 | 4.0 | 0.00 | 0.00 | 0.00 | 89 | 1015.3 |
| 20260904131442 | 76 | 11 | 0.0 | 0.0 | 0.00 | 0.00 | 0.00 | 89 | 1015.5 |
| 20260904130921 | 76 | 11 | 0.0 | 2.0 | 0.00 | 0.00 | 0.00 | 89 | 1015.3 |
| 20260904130419 | 76 | 11 | 0.0 | 2.0 | 0.00 | 0.00 | 0.00 | 90 | 1015.6 |
| 20260904125918 | 76 | 221 | 0.0 | 3.0 | 0.00 | 0.00 | 0.00 | 90 | 1015.4 |
| 20260904125439 | 75 | 31 | 1.0 | 3.0 | 0.00 | 0.00 | 0.00 | 90 | 1015.6 |
| 20260904124918 | 75 | 185 | 0.0 | 6.0 | 0.00 | 0.00 | 0.00 | 91 | 1014.7 |
| 20260904124417 | 75 | 191 | 2.0 | 6.0 | 0.00 | 0.00 | 0.00 | 91 | 1015.1 |
| 20260904123915 | 75 | 204 | 0.0 | 0.0 | 0.00 | 0.00 | 0.00 | 91 | 1014.6 |
| 20260904123413 | 74 | 184 | 0.0 | 0.0 | 0.00 | 0.00 | 0.00 | 92 | 1014.5 |
| 20260904122912 | 74 | 188 | 0.0 | 0.0 | 0.00 | 0.00 | 0.00 | 92 | 1014.5 |
| 20260904122412 | 74 | 170 | 0.0 | 0.0 | 0.00 | 0.00 | 0.00 | 92 | 1014.3 |
| 20260904121932 | 74 | 170 | 0.0 | 1.0 | 0.00 | 0.00 | 0.00 | 92 | 1014.4 |
| 20260904121430 | 74 | 167 | 0.0 | 1.0 | 0.00 | 0.00 | 0.00 | 92 | 1014.4 |
| 20260904120928 | 74 | 221 | 0.0 | 1.0 | 0.00 | 0.00 | 0.00 | 92 | 1014.4 |
| 20260904120429 | 74 | 221 | 0.0 | 0.0 | 0.00 | 0.00 | 0.00 | 91 | 1014.4 |
| 20260904115948 | 74 | 221 | 0.0 | 0.0 | 0.00 | 0.00 | 0.00 | 91 | 1014.4 |
| 20260904115447 | 74 | 221 | 0.0 | 0.0 | 0.00 | 0.00 | 0.00 | 91 | 1014.4 |
| 20260904114926 | 74 | 221 | 0.0 | 0.0 | 0.00 | 0.00 | 0.00 | 91 | 1014.4 |
| 20260904114426 | 74 | 221 | 0.0 | 0.0 | 0.00 | 0.00 | 0.00 | 91 | 1014.4 |
| 20260904113925 | 74 | 221 | 0.0 | 0.0 | 0.00 | 0.00 | 0.00 | 91 | 1014.3 |
| 20260904113424 | 74 | 221 | 0.0 | 0.0 | 0.00 | 0.00 | 0.00 | 91 | 1014.2 |
| 20260904112923 | 74 | 221 | 0.0 | 0.0 | 0.00 | 0.00 | 0.00 | 90 | 1014.2 |
| 20260904112422 | 74 | 221 | 0.0 | 0.0 | 0.00 | 0.00 | 0.00 | 90 | 1014.2 |
| 20260904111941 | 74 | 221 | 0.0 | 0.0 | 0.00 | 0.00 | 0.00 | 90 | 1014.2 |
| 20260904111420 | 74 | 221 | 0.0 | 0.0 | 0.00 | 0.00 | 0.00 | 90 | 1014.2 |
| 20260904110939 | 74 | 221 | 0.0 | 0.0 | 0.00 | 0.00 | 0.00 | 90 | 1014.1 |
| 20260904110417 | 74 | 221 | 0.0 | 0.0 | 0.00 | 0.00 | 0.00 | 90 | 1014.1 |
| 20260904105917 | 74 | 221 | 0.0 | 0.0 | 0.00 | 0.00 | 0.00 | 90 | 1014.0 |
| 20260904105417 | 74 | 221 | 0.0 | 0.0 | 0.00 | 0.00 | 0.00 | 91 | 1013.9 |
| 20260904104915 | 74 | 221 | 0.0 | 3.0 | 0.00 | 0.00 | 0.00 | 91 | 1013.7 |
| 20260904104416 | 74 | 221 | 0.0 | 3.0 | 0.00 | 0.00 | 0.00 | 91 | 1013.4 |
| 20260904103915 | 74 | 221 | 0.0 | 2.0 | 0.00 | 0.00 | 0.00 | 91 | 1013.3 |
| 20260904103432 | 74 | 181 | 0.0 | 0.0 | 0.00 | 0.00 | 0.00 | 91 | 1013.2 |
| 20260904102952 | 74 | 181 | 0.0 | 0.0 | 0.00 | 0.00 | 0.00 | 91 | 1013.2 |
| 20260904102429 | 74 | 181 | 0.0 | 0.0 | 0.00 | 0.00 | 0.00 | 91 | 1013.3 |
| 20260904101927 | 74 | 181 | 0.0 | 0.0 | 0.00 | 0.00 | 0.00 | 90 | 1013.3 |
| 20260904101426 | 74 | 181 | 0.0 | 0.0 | 0.00 | 0.00 | 0.00 | 90 | 1013.3 |
| 20260904100925 | 74 | 181 | 0.0 | 0.0 | 0.00 | 0.00 | 0.00 | 90 | 1013.4 |
| 20260904100423 | 74 | 181 | 0.0 | 0.0 | 0.00 | 0.00 | 0.00 | 90 | 1013.4 |
| 20260904095916 | 74 | 181 | 0.0 | 0.0 | 0.00 | 0.00 | 0.00 | 90 | 1013.5 |
| 20260904095419 | 73 | 181 | 0.0 | 0.0 | 0.00 | 0.00 | 0.00 | 90 | 1013.7 |
| 20260904094917 | 73 | 181 | 0.0 | 0.0 | 0.00 | 0.00 | 0.00 | 91 | 1013.7 |
| 20260904094416 | 73 | 181 | 0.0 | 1.0 | 0.00 | 0.00 | 0.00 | 90 | 1013.5 |
| 20260904093916 | 73 | 181 | 0.0 | 1.0 | 0.00 | 0.00 | 0.00 | 90 | 1013.6 |
| 20260904093414 | 73 | 181 | 0.0 | 0.0 | 0.00 | 0.00 | 0.00 | 90 | 1013.3 |
| 20260904092915 | 73 | 181 | 0.0 | 0.0 | 0.00 | 0.00 | 0.00 | 90 | 1013.3 |
| 20260904092412 | 73 | 181 | 0.0 | 0.0 | 0.00 | 0.00 | 0.00 | 90 | 1013.5 |
| 20260904091912 | 73 | 181 | 0.0 | 0.0 | 0.00 | 0.00 | 0.00 | 90 | 1013.5 |
| 20260904091431 | 73 | 181 | 0.0 | 0.0 | 0.00 | 0.00 | 0.00 | 90 | 1013.5 |
| 20260904090928 | 73 | 181 | 0.0 | 0.0 | 0.00 | 0.00 | 0.00 | 90 | 1013.7 |
| 20260904090449 | 73 | 181 | 0.0 | 0.0 | 0.00 | 0.00 | 0.00 | 90 | 1013.6 |
| 20260904085927 | 73 | 181 | 0.0 | 0.0 | 0.00 | 0.00 | 0.00 | 90 | 1013.5 |
| 20260904085429 | 73 | 181 | 0.0 | 0.0 | 0.00 | 0.00 | 0.00 | 89 | 1013.7 |
| 20260904084928 | 73 | 181 | 0.0 | 0.0 | 0.00 | 0.00 | 0.00 | 89 | 1014.1 |
| 20260904084428 | 73 | 181 | 0.0 | 0.0 | 0.00 | 0.00 | 0.00 | 90 | 1014.2 |
| 20260904083928 | 73 | 181 | 0.0 | 0.0 | 0.00 | 0.00 | 0.00 | 90 | 1014.3 |
| 20260904083426 | 73 | 181 | 0.0 | 0.0 | 0.00 | 0.00 | 0.00 | 90 | 1014.3 |
| 20260904082927 | 73 | 181 | 0.0 | 0.0 | 0.00 | 0.00 | 0.00 | 90 | 1014.0 |
| 20260904082426 | 73 | 181 | 0.0 | 0.0 | 0.00 | 0.00 | 0.00 | 90 | 1014.0 |
| 20260904081925 | 73 | 181 | 0.0 | 0.0 | 0.00 | 0.00 | 0.00 | 90 | 1014.0 |
| 20260904081424 | 73 | 181 | 0.0 | 0.0 | 0.00 | 0.00 | 0.00 | 90 | 1014.0 |
| 20260904080924 | 73 | 181 | 0.0 | 0.0 | 0.00 | 0.00 | 0.00 | 90 | 1013.9 |
| 20260904080444 | 73 | 181 | 0.0 | 0.0 | 0.00 | 0.00 | 0.00 | 90 | 1013.8 |
| 20260904075943 | 73 | 181 | 0.0 | 0.0 | 0.00 | 0.00 | 0.00 | 90 | 1013.9 |
| 20260904075420 | 73 | 181 | 0.0 | 0.0 | 0.00 | 0.00 | 0.00 | 90 | 1013.8 |
| 20260904074921 | 73 | 181 | 0.0 | 0.0 | 0.00 | 0.00 | 0.00 | 90 | 1013.7 |
| 20260904074420 | 73 | 129 | 0.0 | 0.0 | 0.00 | 0.00 | 0.00 | 90 | 1013.7 |
| 20260904073921 | 73 | 94 | 0.0 | 0.0 | 0.00 | 0.00 | 0.00 | 90 | 1013.8 |
| 20260904073421 | 73 | 94 | 0.0 | 0.0 | 0.00 | 0.00 | 0.00 | 90 | 1014.0 |
| 20260904072921 | 73 | 94 | 0.0 | 0.0 | 0.00 | 0.00 | 0.00 | 90 | 1013.7 |
| 20260904072418 | 73 | 94 | 0.0 | 0.0 | 0.00 | 0.00 | 0.00 | 90 | 1013.8 |
| 20260904071937 | 73 | 94 | 0.0 | 0.0 | 0.00 | 0.00 | 0.00 | 90 | 1013.8 |
| 20260904071416 | 73 | 94 | 0.0 | 0.0 | 0.00 | 0.00 | 0.00 | 90 | 1013.9 |
| 20260904070916 | 73 | 94 | 0.0 | 0.0 | 0.00 | 0.00 | 0.00 | 90 | 1014.1 |
| 20260904070415 | 73 | 94 | 0.0 | 0.0 | 0.00 | 0.00 | 0.00 | 89 | 1014.1 |
| 20260904065914 | 73 | 94 | 0.0 | 0.0 | 0.00 | 0.00 | 0.00 | 89 | 1014.2 |
| 20260904065434 | 73 | 94 | 0.0 | 0.0 | 0.00 | 0.00 | 0.00 | 89 | 1014.3 |
| 20260904064911 | 73 | 94 | 0.0 | 0.0 | 0.00 | 0.00 | 0.00 | 89 | 1014.3 |
| 20260904064411 | 73 | 94 | 0.0 | 0.0 | 0.00 | 0.00 | 0.00 | 89 | 1014.5 |
| 20260904063912 | 73 | 94 | 0.0 | 0.0 | 0.00 | 0.00 | 0.00 | 89 | 1014.6 |
| 20260904063411 | 73 | 94 | 0.0 | 0.0 | 0.00 | 0.00 | 0.00 | 88 | 1014.6 |
| 20260904062911 | 73 | 94 | 0.0 | 0.0 | 0.00 | 0.00 | 0.00 | 88 | 1014.7 |
| 20260904062411 | 73 | 94 | 0.0 | 0.0 | 0.00 | 0.00 | 0.00 | 88 | 1014.9 |
| 20260904061911 | 73 | 94 | 0.0 | 0.0 | 0.00 | 0.00 | 0.00 | 88 | 1014.9 |
| 20260904061430 | 73 | 94 | 0.0 | 0.0 | 0.00 | 0.00 | 0.00 | 88 | 1014.9 |
| 20260904060931 | 74 | 94 | 0.0 | 0.0 | 0.00 | 0.00 | 0.00 | 88 | 1015.0 |
| 20260904060429 | 74 | 94 | 0.0 | 0.0 | 0.00 | 0.00 | 0.00 | 87 | 1015.0 |
| 20260904055947 | 74 | 94 | 0.0 | 0.0 | 0.00 | 0.00 | 0.00 | 87 | 1015.1 |
| 20260904055427 | 74 | 94 | 0.0 | 0.0 | 0.00 | 0.00 | 0.00 | 87 | 1015.1 |
| 20260904054927 | 74 | 94 | 0.0 | 0.0 | 0.00 | 0.00 | 0.00 | 87 | 1015.0 |
| 20260904054427 | 74 | 94 | 0.0 | 0.0 | 0.00 | 0.00 | 0.00 | 86 | 1015.0 |
| 20260904053946 | 74 | 94 | 0.0 | 0.0 | 0.00 | 0.00 | 0.00 | 86 | 1015.0 |
| 20260904053424 | 75 | 94 | 0.0 | 0.0 | 0.00 | 0.00 | 0.00 | 86 | 1014.9 |
| 20260904052945 | 75 | 94 | 0.0 | 0.0 | 0.00 | 0.00 | 0.00 | 85 | 1014.9 |
| 20260904052424 | 75 | 174 | 0.0 | 0.0 | 0.00 | 0.00 | 0.00 | 85 | 1014.7 |
| 20260904051924 | 75 | 174 | 0.0 | 0.0 | 0.00 | 0.00 | 0.00 | 85 | 1014.8 |
| 20260904051424 | 75 | 174 | 0.0 | 0.0 | 0.00 | 0.00 | 0.00 | 84 | 1014.7 |
| 20260904050946 | 75 | 174 | 0.0 | 0.0 | 0.00 | 0.00 | 0.00 | 84 | 1014.7 |
| 20260904050422 | 75 | 174 | 0.0 | 0.0 | 0.00 | 0.00 | 0.00 | 84 | 1014.7 |
| 20260904045922 | 75 | 174 | 0.0 | 0.0 | 0.00 | 0.00 | 0.00 | 83 | 1014.8 |
| 20260904045422 | 75 | 174 | 0.0 | 0.0 | 0.00 | 0.00 | 0.00 | 83 | 1014.8 |
| 20260904044921 | 76 | 174 | 0.0 | 0.0 | 0.00 | 0.00 | 0.00 | 83 | 1014.9 |
| 20260904044420 | 76 | 174 | 0.0 | 0.0 | 0.00 | 0.00 | 0.00 | 83 | 1014.9 |
| 20260904043921 | 76 | 174 | 0.0 | 0.0 | 0.00 | 0.00 | 0.00 | 83 | 1015.0 |
| 20260904043420 | 76 | 174 | 0.0 | 0.0 | 0.00 | 0.00 | 0.00 | 83 | 1014.9 |
| 20260904042919 | 76 | 174 | 0.0 | 0.0 | 0.00 | 0.00 | 0.00 | 83 | 1015.1 |
| 20260904042421 | 76 | 174 | 0.0 | 0.0 | 0.00 | 0.00 | 0.00 | 83 | 1015.1 |
| 20260904041936 | 76 | 174 | 0.0 | 0.0 | 0.00 | 0.00 | 0.00 | 82 | 1015.2 |
| 20260904041414 | 76 | 174 | 0.0 | 0.0 | 0.00 | 0.00 | 0.00 | 82 | 1015.2 |
| 20260904040913 | 77 | 174 | 0.0 | 0.0 | 0.00 | 0.00 | 0.00 | 82 | 1015.1 |
| 20260904040412 | 77 | 174 | 0.0 | 0.0 | 0.00 | 0.00 | 0.00 | 81 | 1015.2 |
| 20260904035952 | 77 | 173 | 0.0 | 0.0 | 0.00 | 0.00 | 0.00 | 81 | 1015.2 |
| 20260904035412 | 77 | 173 | 0.0 | 0.0 | 0.00 | 0.00 | 0.00 | 81 | 1015.2 |
| 20260904034912 | 77 | 173 | 0.0 | 0.0 | 0.00 | 0.00 | 0.00 | 80 | 1015.3 |
| 20260904034432 | 77 | 173 | 0.0 | 0.0 | 0.00 | 0.00 | 0.00 | 80 | 1015.3 |
| 20260904033931 | 77 | 173 | 0.0 | 0.0 | 0.00 | 0.00 | 0.00 | 80 | 1015.2 |
| 20260904033428 | 77 | 173 | 0.0 | 0.0 | 0.00 | 0.00 | 0.00 | 79 | 1015.1 |
| 20260904032948 | 78 | 173 | 0.0 | 0.0 | 0.00 | 0.00 | 0.00 | 79 | 1015.0 |
| 20260904032426 | 78 | 173 | 0.0 | 3.0 | 0.00 | 0.00 | 0.00 | 79 | 1015.0 |
| 20260904031926 | 78 | 175 | 0.0 | 4.0 | 0.00 | 0.00 | 0.00 | 79 | 1015.0 |
| 20260904031446 | 78 | 171 | 1.0 | 2.0 | 0.00 | 0.00 | 0.00 | 79 | 1015.0 |
| 20260904030924 | 78 | 173 | 1.0 | 2.0 | 0.00 | 0.00 | 0.00 | 78 | 1015.0 |
| 20260904030423 | 78 | 173 | 1.0 | 2.0 | 0.00 | 0.00 | 0.00 | 78 | 1015.2 |
| 20260904025923 | 78 | 190 | 0.0 | 2.0 | 0.00 | 0.00 | 0.00 | 78 | 1015.2 |
| 20260904025424 | 78 | 197 | 0.0 | 2.0 | 0.00 | 0.00 | 0.00 | 77 | 1015.3 |
| 20260904024925 | 78 | 198 | 0.0 | 2.0 | 0.00 | 0.00 | 0.00 | 77 | 1015.3 |
| 20260904024423 | 78 | 171 | 0.0 | 0.0 | 0.00 | 0.00 | 0.00 | 76 | 1015.3 |
| 20260904023944 | 78 | 171 | 0.0 | 3.0 | 0.00 | 0.00 | 0.00 | 76 | 1015.3 |
| 20260904023422 | 78 | 144 | 1.0 | 3.0 | 0.00 | 0.00 | 0.00 | 76 | 1015.3 |
| 20260904022921 | 78 | 128 | 0.0 | 2.0 | 0.00 | 0.00 | 0.00 | 75 | 1015.2 |
| 20260904022421 | 78 | 177 | 0.0 | 5.0 | 0.00 | 0.00 | 0.00 | 75 | 1015.2 |
| 20260904021920 | 78 | 185 | 0.0 | 5.0 | 0.00 | 0.00 | 0.00 | 75 | 1015.1 |
| 20260904021419 | 78 | 108 | 0.0 | 2.0 | 0.00 | 0.00 | 0.00 | 75 | 1015.1 |
| 20260904020918 | 78 | 121 | 0.0 | 0.0 | 0.00 | 0.00 | 0.00 | 75 | 1015.0 |
| 20260904020419 | 78 | 122 | 0.0 | 1.0 | 0.00 | 0.00 | 0.00 | 74 | 1015.1 |
| 20260904015919 | 78 | 188 | 0.0 | 4.0 | 0.00 | 0.00 | 0.00 | 74 | 1015.0 |
| 20260904015417 | 78 | 129 | 0.0 | 4.0 | 0.00 | 0.00 | 0.00 | 74 | 1014.9 |
| 20260904014916 | 78 | 184 | 1.0 | 4.0 | 0.00 | 0.00 | 0.00 | 74 | 1014.9 |
| 20260904014415 | 78 | 154 | 0.0 | 1.0 | 0.00 | 0.00 | 0.00 | 74 | 1014.9 |
| 20260904013916 | 79 | 211 | 0.0 | 2.0 | 0.00 | 0.00 | 0.00 | 74 | 1014.9 |
| 20260904013416 | 79 | 211 | 0.0 | 2.0 | 0.00 | 0.00 | 0.00 | 74 | 1015.0 |
| 20260904012914 | 79 | 167 | 0.0 | 1.0 | 0.00 | 0.00 | 0.00 | 74 | 1014.9 |
| 20260904012414 | 79 | 167 | 0.0 | 1.0 | 0.00 | 0.00 | 0.00 | 75 | 1014.8 |
| 20260904011932 | 79 | 84 | 0.0 | 0.0 | 0.00 | 0.00 | 0.00 | 75 | 1014.7 |
| 20260904011431 | 79 | 84 | 0.0 | 0.0 | 0.00 | 0.00 | 0.00 | 75 | 1014.7 |
| 20260904010911 | 79 | 84 | 0.0 | 1.0 | 0.00 | 0.00 | 0.00 | 75 | 1014.8 |
| 20260904010412 | 79 | 84 | 0.0 | 1.0 | 0.00 | 0.00 | 0.00 | 75 | 1014.8 |
| 20260904005911 | 79 | 84 | 0.0 | 1.0 | 0.00 | 0.00 | 0.00 | 75 | 1014.8 |
| 20260904005431 | 79 | 84 | 0.0 | 1.0 | 0.00 | 0.00 | 0.00 | 75 | 1014.8 |
| 20260904004928 | 79 | 84 | 0.0 | 1.0 | 0.00 | 0.00 | 0.00 | 75 | 1014.7 |
| 20260904004428 | 79 | 71 | 0.0 | 1.0 | 0.00 | 0.00 | 0.00 | 75 | 1014.7 |
| 20260904003927 | 80 | 71 | 0.0 | 2.0 | 0.00 | 0.00 | 0.00 | 74 | 1014.7 |
| 20260904003427 | 80 | 57 | 1.0 | 2.0 | 0.00 | 0.00 | 0.00 | 74 | 1014.8 |
| 20260904002947 | 80 | 54 | 0.0 | 0.0 | 0.00 | 0.00 | 0.00 | 73 | 1014.7 |
| 20260904002445 | 81 | 54 | 0.0 | 0.0 | 0.00 | 0.00 | 0.00 | 73 | 1014.7 |
| 20260904001922 | 81 | 54 | 0.0 | 3.0 | 0.00 | 0.00 | 0.00 | 73 | 1014.8 |
| 20260904001422 | 81 | 54 | 0.0 | 3.0 | 0.00 | 0.00 | 0.00 | 73 | 1014.7 |
| 20260904000922 | 82 | 76 | 2.0 | 3.0 | 0.00 | 0.00 | 0.00 | 73 | 1014.7 |
| 20260904000421 | 82 | 259 | 0.0 | 3.0 | 0.00 | 0.00 | 0.00 | 73 | 1014.6 |
| 20260903235920 | 82 | 42 | 1.0 | 4.0 | 0.00 | 0.00 | 0.00 | 72 | 1014.6 |
| 20260903235418 | 82 | 75 | 1.0 | 4.0 | 0.00 | 0.00 | 0.00 | 71 | 1014.5 |
| 20260903234919 | 82 | 101 | 0.0 | 2.0 | 0.00 | 0.00 | 0.00 | 71 | 1014.5 |
| 20260903234418 | 83 | 98 | 0.0 | 3.0 | 0.00 | 0.00 | 0.00 | 72 | 1014.2 |
| 20260903233917 | 83 | 177 | 0.0 | 3.0 | 0.00 | 0.00 | 0.00 | 71 | 1014.2 |
| 20260903233416 | 83 | 69 | 0.0 | 1.0 | 0.00 | 0.00 | 0.00 | 72 | 1014.2 |
| 20260903232916 | 83 | 69 | 0.0 | 2.0 | 0.00 | 0.00 | 0.00 | 72 | 1014.2 |
| 20260903232411 | 83 | 63 | 1.0 | 3.0 | 0.00 | 0.00 | 0.00 | 72 | 1014.2 |
| 20260903231931 | 83 | 63 | 0.0 | 3.0 | 0.00 | 0.00 | 0.00 | 72 | 1014.1 |
| 20260903231429 | 83 | 57 | 1.0 | 3.0 | 0.00 | 0.00 | 0.00 | 71 | 1014.1 |
| 20260903230947 | 83 | 42 | 0.0 | 3.0 | 0.00 | 0.00 | 0.00 | 71 | 1014.0 |
| 20260903230427 | 83 | 51 | 1.0 | 3.0 | 0.00 | 0.00 | 0.00 | 71 | 1014.1 |
| 20260903225946 | 83 | 24 | 1.0 | 2.0 | 0.00 | 0.00 | 0.00 | 70 | 1014.1 |
| 20260903225424 | 83 | 78 | 0.0 | 1.0 | 0.00 | 0.00 | 0.00 | 70 | 1014.0 |
| 20260903224943 | 83 | 78 | 0.0 | 2.0 | 0.00 | 0.00 | 0.00 | 69 | 1013.9 |
| 20260903224422 | 83 | 115 | 0.0 | 4.0 | 0.00 | 0.00 | 0.00 | 69 | 1013.9 |
| 20260903223922 | 83 | 53 | 1.0 | 4.0 | 0.00 | 0.00 | 0.00 | 69 | 1014.0 |
| 20260903223422 | 83 | 86 | 1.0 | 2.0 | 0.00 | 0.00 | 0.00 | 68 | 1014.0 |
| 20260903222922 | 83 | 102 | 0.0 | 3.0 | 0.00 | 0.00 | 0.00 | 69 | 1014.1 |
| 20260903222421 | 83 | 129 | 0.0 | 4.0 | 0.00 | 0.00 | 0.00 | 70 | 1014.2 |
| 20260903221921 | 83 | 17 | 2.0 | 5.0 | 0.00 | 0.00 | 0.00 | 69 | 1014.2 |
| 20260903221421 | 83 | 84 | 2.0 | 6.0 | 0.00 | 0.00 | 0.00 | 69 | 1014.1 |
| 20260903220918 | 83 | 89 | 2.0 | 6.0 | 0.00 | 0.00 | 0.00 | 69 | 1014.3 |
| 20260903220418 | 83 | 63 | 1.0 | 6.0 | 0.00 | 0.00 | 0.00 | 70 | 1014.2 |
| 20260903215917 | 83 | 59 | 2.0 | 7.0 | 0.00 | 0.00 | 0.00 | 69 | 1014.3 |
| 20260903215416 | 83 | 51 | 3.0 | 7.0 | 0.00 | 0.00 | 0.00 | 69 | 1014.4 |
| 20260903214916 | 83 | 58 | 2.0 | 6.0 | 0.00 | 0.00 | 0.00 | 69 | 1014.3 |
| 20260903214436 | 83 | 54 | 1.0 | 6.0 | 0.00 | 0.00 | 0.00 | 69 | 1014.4 |
| 20260903213916 | 83 | 51 | 2.0 | 6.0 | 0.00 | 0.00 | 0.00 | 69 | 1014.6 |
| 20260903213415 | 83 | 38 | 2.0 | 6.0 | 0.00 | 0.00 | 0.00 | 68 | 1014.6 |
| 20260903212912 | 83 | 42 | 3.0 | 8.0 | 0.00 | 0.00 | 0.00 | 67 | 1014.6 |
| 20260903212414 | 83 | 49 | 3.0 | 8.0 | 0.00 | 0.00 | 0.00 | 68 | 1014.7 |
| 20260903211912 | 83 | 57 | 2.0 | 4.0 | 0.00 | 0.00 | 0.00 | 69 | 1014.7 |
| 20260903211413 | 83 | 15 | 3.0 | 8.0 | 0.00 | 0.00 | 0.00 | 68 | 1014.8 |
| 20260903210913 | 83 | 67 | 3.0 | 8.0 | 0.00 | 0.00 | 0.00 | 69 | 1015.0 |
| 20260903210412 | 83 | 11 | 3.0 | 7.0 | 0.00 | 0.00 | 0.00 | 68 | 1014.9 |
| 20260903205912 | 83 | 38 | 1.0 | 6.0 | 0.00 | 0.00 | 0.00 | 68 | 1014.8 |
| 20260903205412 | 84 | 10 | 2.0 | 4.0 | 0.00 | 0.00 | 0.00 | 68 | 1014.8 |
| 20260903204912 | 83 | 29 | 2.0 | 6.0 | 0.00 | 0.00 | 0.00 | 67 | 1015.0 |
| 20260903204431 | 83 | 355 | 3.0 | 6.0 | 0.00 | 0.00 | 0.00 | 68 | 1015.1 |
| 20260903203931 | 83 | 355 | 2.0 | 4.0 | 0.00 | 0.00 | 0.00 | 67 | 1015.0 |
| 20260903203430 | 83 | 360 | 1.0 | 4.0 | 0.00 | 0.00 | 0.00 | 68 | 1015.1 |
| 20260903202927 | 83 | 9 | 2.0 | 4.0 | 0.00 | 0.00 | 0.00 | 67 | 1015.0 |
| 20260903202425 | 83 | 315 | 2.0 | 5.0 | 0.00 | 0.00 | 0.00 | 67 | 1014.9 |
| 20260903201925 | 83 | 78 | 3.0 | 5.0 | 0.00 | 0.00 | 0.00 | 67 | 1014.8 |
| 20260903201426 | 83 | 55 | 2.0 | 5.0 | 0.00 | 0.00 | 0.00 | 67 | 1014.8 |